SL-14 DEB, 45348

Orbit data source: Space-Track

SL-14 DEB, 45348 is space debris in LEO originally from a launch on Thu, 15 Aug 1991 UTC launched from the Plesetsk Missile And Space Complex (PKMTR). Debris objects in space refer to the collection of defunct objects orbiting the Earth. Examples of debris include non-operational satellites, rocket bodies, and fragments generated from explosions, collisions, or faulty payload assembly.

Loading next visibility...
Identifier
45348, 1991-056CH
Orbit
LEO
Country
Flag of CISCIS
Related business
Manufacturer
Unknown
Mission
Spacecraft
Bus & Motor
Unknown
Mass
Unknown
Launch date (UTC)
1991-08-15 (35 years ago)
Launch vehicle
Unknown
Launch site
Plesetsk Missile And Space Complex (PKMTR)
Object type
Payload
Rocket body
Debris
Shape & HBR
Unknown shape, 0.1 m
Radar Cross Section
Small (<0.1 m²)

Expand to show TLE details & history
Last TLE update: 16 hours ago

TLE from 16 hours ago
0 SL-14 DEB
1 45348U 91056CH  26127.85441282  .00000061  00000-0  12280-3 0  9990
2 45348  82.5667 164.1184 0021207 185.5433 174.5459 13.19269088297635
Epoch: 2026-05-07T20:30Z
TLE epoch observation values (Epoch: 2026-05-07T20:30:21.267Z)
Latitude
-0.00006°
Longitude
-9.1648°
Altitude
1,206.299 km
Speed
7.243 km/s
True Right ascension
10h 56m 28s
True Declination
0° 00' 00"
Sunlit
Object was in daylight at epoch
Visualization orbit readout
Latitude
Unknown
Longitude
Unknown
Altitude
Unknown
Speed
Unknown
Apparent Right ascension
Unknown
Apparent Declination
Unknown
Sunlit
N/A
Visualization observer readout
Local Sidereal Time
20:59:14
Azimuth
Unknown
Elevation
Unknown
Doppler factor
Unknown
Orbital elements
Apogee altitude
1,200.793 km
Perigee altitude
1,168.715 km
Semi-major axis
7,562.891 km
Eccentricity
0.00212
Inclination
82.5667°
RAAN
164.1184°
Arg. of periapsis
185.5433°
True anomaly
174.56894°
Mean anomaly
174.5459°
Eccentric anomaly
174.55742°
Mean motion
3.29998 °/min
Orbital period
109.09 mins
BSTAR
0.0001228
Loading maneuver chart data...
Computing Atmospheric mass density...
Loading historical data...
Loading historical data...
Loading historical data...
Loading historical data...
Loading historical data...
Loading historical data...
Loading historical data...

Documentation

Showing up to 5 results
|